Weather History for Land O' Lakes, WI

Change the Weather History Date:

Thursday, February 14, 2013

  Actual Average (KEGV) Record (KEGV)
Temperature  
Mean Temperature 22 °F -  
Max Temperature 28 °F 24 °F 42 °F (2002)
Min Temperature 14 °F 9 °F -14 °F (2000)
Degree Days  
Heating Degree Days 44    
Moisture  
Dew Point 19 °F    
Average Humidity 83    
Maximum Humidity 100    
Minimum Humidity 68    
Precipitation  
Precipitation 0.00 in - - ()
Sea Level Pressure  
Sea Level Pressure 29.74 in    
Wind  
Wind Speed 7 mph (North)    
Max Wind Speed 15 mph    
Max Gust Speed 21 mph    
Visibility 9 miles    
Events Snow    
Averages and records for this station are not official NWS values.
T = Trace of Precipitation, MM = Missing Value Source: NWS Daily Summary

Daily Weather History Graph

Daily Weather History Graph

Search for Another Location

Airport:

Trip Planner

Search our weather history database for the weather conditions in past years. The results will help you decide how hot, cold, wet, or windy it might be!

Date:

Astronomy

Feb. 14, 2013 Rise Set
Actual Time 7:00 AM CST 5:21 PM CST
Civil Twilight 6:30 AM CST 5:52 PM CST
Nautical Twilight 5:54 AM CST 6:27 PM CST
Astronomical Twilight 5:20 AM CST 7:02 PM CST
Moon 8:44 AM CST (2/14) 10:45 PM CST (2/14)
Length of Visible Light 11h 22m
Length of Day
10h 20m
Waxing Crescent, 22% of the Moon is Illuminated
Feb 14
Waxing Crescent
Feb 17
First Quarter
Feb 25
Full
Mar 4
Last Quarter
Mar 11
New

Hourly Weather History & Observations

Time (CST) Temp. Windchill Dew Point Humidity Pressure Visibility Wind Dir Wind Speed Gust Speed Precip Events Conditions
12:15 AM 28.4 °F 22.2 °F 26.6 °F 93% 29.59 in 7.0 mi North 5.8 mph - N/A   Overcast
12:35 AM 28.4 °F 23.3 °F 26.6 °F 93% 29.59 in 5.0 mi North 4.6 mph - N/A   Overcast
12:55 AM 28.4 °F 22.2 °F 26.6 °F 93% 29.59 in 7.0 mi North 5.8 mph - N/A   Overcast
1:15 AM 28.4 °F 23.3 °F 26.6 °F 93% 29.59 in 10.0 mi North 4.6 mph - N/A   Overcast
1:35 AM 28.4 °F 22.2 °F 26.6 °F 93% 29.59 in 10.0 mi North 5.8 mph - N/A   Overcast
1:55 AM 28.4 °F 23.3 °F 26.6 °F 93% 29.59 in 10.0 mi North 4.6 mph - N/A   Overcast
2:15 AM 28.4 °F 22.2 °F 26.6 °F 93% 29.59 in 10.0 mi North 5.8 mph - N/A   Overcast
2:35 AM 28.4 °F 23.3 °F 26.6 °F 93% 29.59 in 10.0 mi North 4.6 mph - N/A   Overcast
2:55 AM 28.4 °F 21.2 °F 26.6 °F 93% 29.59 in 10.0 mi NNE 6.9 mph - N/A Snow Light Snow
3:15 AM 28.4 °F 22.2 °F 26.6 °F 93% 29.59 in 10.0 mi North 5.8 mph - N/A Snow Light Snow
3:35 AM 26.6 °F 20.0 °F 26.6 °F 100% 29.59 in 10.0 mi North 5.8 mph - N/A   Overcast
3:55 AM 26.6 °F 20.0 °F 23.0 °F 86% 29.59 in 10.0 mi North 5.8 mph - N/A   Overcast
4:15 AM 26.6 °F 20.0 °F 23.0 °F 86% 29.59 in 10.0 mi NNE 5.8 mph - N/A   Overcast
4:35 AM 26.6 °F 22.6 °F 23.0 °F 86% 29.60 in 10.0 mi North 3.5 mph - N/A   Overcast
4:55 AM 26.6 °F 21.2 °F 23.0 °F 86% 29.60 in 10.0 mi North 4.6 mph - N/A   Overcast
5:15 AM 26.6 °F 20.0 °F 23.0 °F 86% 29.60 in 10.0 mi North 5.8 mph - N/A   Overcast
5:35 AM 26.6 °F 20.0 °F 23.0 °F 86% 29.61 in 10.0 mi North 5.8 mph - N/A   Overcast
5:55 AM 26.6 °F 21.2 °F 23.0 °F 86% 29.61 in 10.0 mi North 4.6 mph - N/A   Overcast
6:15 AM 26.6 °F 22.6 °F 23.0 °F 86% 29.61 in 10.0 mi North 3.5 mph - N/A   Overcast
6:35 AM 26.6 °F 21.2 °F 23.0 °F 86% 29.62 in 10.0 mi North 4.6 mph - N/A   Overcast
6:55 AM 26.6 °F 21.2 °F 23.0 °F 86% 29.62 in 10.0 mi North 4.6 mph - N/A Snow Light Snow
7:15 AM 26.6 °F 20.0 °F 23.0 °F 86% 29.63 in 10.0 mi North 5.8 mph - N/A   Overcast
7:35 AM 26.6 °F 20.0 °F 23.0 °F 86% 29.64 in 10.0 mi North 5.8 mph - N/A   Overcast
7:55 AM 26.6 °F 19.1 °F 23.0 °F 86% 29.64 in 10.0 mi North 6.9 mph - N/A   Overcast
8:15 AM 26.6 °F 19.1 °F 23.0 °F 86% 29.65 in 10.0 mi North 6.9 mph - N/A   Overcast
8:35 AM 26.6 °F 20.0 °F 23.0 °F 86% 29.65 in 10.0 mi North 5.8 mph - N/A   Overcast
9:15 AM 28.4 °F 22.2 °F 23.0 °F 80% 29.65 in 10.0 mi North 5.8 mph - N/A   Overcast
9:35 AM 28.4 °F 21.2 °F 23.0 °F 80% 29.66 in 10.0 mi North 6.9 mph - N/A   Overcast
9:55 AM 28.4 °F 22.2 °F 23.0 °F 80% 29.66 in 10.0 mi North 5.8 mph - N/A   Overcast
10:15 AM 28.4 °F 21.2 °F 23.0 °F 80% 29.67 in 5.0 mi North 6.9 mph - N/A Snow Light Snow
10:35 AM 28.4 °F 19.1 °F 23.0 °F 80% 29.67 in 7.0 mi North 10.4 mph 16.1 mph N/A Snow Light Snow
10:55 AM 28.4 °F 19.1 °F 23.0 °F 80% 29.68 in 7.0 mi North 10.4 mph 17.3 mph N/A Snow Light Snow
11:15 AM 26.6 °F 14.7 °F 23.0 °F 86% 29.69 in 5.0 mi North 15.0 mph 19.6 mph N/A Snow Light Snow
11:35 AM 26.6 °F 15.7 °F 23.0 °F 86% 29.70 in 5.0 mi North 12.7 mph 17.3 mph N/A Snow Light Snow
11:55 AM 26.6 °F 16.2 °F 21.2 °F 80% 29.70 in 10.0 mi North 11.5 mph 20.7 mph N/A Snow Light Snow
12:15 PM 24.8 °F 13.4 °F 21.2 °F 86% 29.71 in 7.0 mi North 12.7 mph 20.7 mph N/A Snow Light Snow
12:35 PM 24.8 °F 14.0 °F 19.4 °F 80% 29.71 in 7.0 mi North 11.5 mph 18.4 mph N/A Snow Light Snow
12:55 PM 24.8 °F 13.4 °F 19.4 °F 80% 29.72 in 10.0 mi North 12.7 mph 19.6 mph N/A Snow Light Snow
1:15 PM 24.8 °F 12.9 °F 19.4 °F 80% 29.72 in 10.0 mi NNE 13.8 mph - N/A Snow Light Snow
1:35 PM 24.8 °F 13.4 °F 17.6 °F 74% 29.73 in 10.0 mi North 12.7 mph 19.6 mph N/A Snow Light Snow
1:55 PM 23.0 °F 11.7 °F 17.6 °F 80% 29.74 in 10.0 mi North 11.5 mph 17.3 mph N/A   Overcast
2:15 PM 23.0 °F 12.4 °F 17.6 °F 80% 29.75 in 10.0 mi North 10.4 mph - N/A   Overcast
2:35 PM 23.0 °F 11.7 °F 17.6 °F 80% 29.76 in 10.0 mi North 11.5 mph 17.3 mph N/A   Overcast
2:55 PM 23.0 °F 12.4 °F 17.6 °F 80% 29.77 in 7.0 mi NNW 10.4 mph 16.1 mph N/A Snow Light Snow
3:15 PM 23.0 °F 11.1 °F 15.8 °F 74% 29.79 in 10.0 mi NNW 12.7 mph - N/A Snow Light Snow
3:35 PM 21.2 °F 11.7 °F 15.8 °F 80% 29.79 in 5.0 mi NNW 8.1 mph 16.1 mph N/A Snow Light Snow
3:55 PM 21.2 °F 11.7 °F 15.8 °F 80% 29.81 in 5.0 mi NNW 8.1 mph - N/A Snow Light Snow
4:15 PM 21.2 °F 9.5 °F 15.8 °F 80% 29.81 in 5.0 mi North 11.5 mph - N/A Snow Light Snow
4:35 PM 21.2 °F 10.1 °F 15.8 °F 80% 29.83 in 4.0 mi NNW 10.4 mph - N/A Snow Light Snow
4:55 PM 19.4 °F 7.2 °F 14.0 °F 80% 29.84 in 10.0 mi NNW 11.5 mph 18.4 mph N/A Snow Light Snow
5:15 PM 19.4 °F 8.6 °F 14.0 °F 80% 29.85 in 7.0 mi NNW 9.2 mph 17.3 mph N/A Snow Light Snow
5:35 PM 19.4 °F 8.6 °F 14.0 °F 80% 29.86 in 4.0 mi NNW 9.2 mph 18.4 mph N/A Snow Light Snow
5:55 PM 19.4 °F 9.5 °F 14.0 °F 80% 29.88 in 5.0 mi NNW 8.1 mph - N/A Snow Light Snow
6:15 PM 19.4 °F 6.0 °F 14.0 °F 80% 29.89 in 4.0 mi North 13.8 mph - N/A Snow Light Snow
6:35 PM 17.6 °F 8.2 °F 14.0 °F 86% 29.90 in 2.5 mi NNW 6.9 mph - N/A Snow Light Snow
6:55 PM 17.6 °F 7.3 °F 14.0 °F 86% 29.90 in 10.0 mi NNW 8.1 mph - N/A Snow Light Snow
7:15 PM 17.6 °F 5.7 °F 12.2 °F 79% 29.91 in 10.0 mi NNW 10.4 mph 16.1 mph N/A Snow Light Snow
7:35 PM 17.6 °F 7.3 °F 12.2 °F 79% 29.91 in 7.0 mi NNW 8.1 mph - N/A Snow Light Snow
7:55 PM 17.6 °F 7.3 °F 12.2 °F 79% 29.91 in 7.0 mi NW 8.1 mph - N/A Snow Light Snow
8:15 PM 17.6 °F 9.3 °F 12.2 °F 79% 29.92 in 10.0 mi NW 5.8 mph - N/A   Overcast
8:35 PM 17.6 °F 9.3 °F 12.2 °F 79% 29.92 in 10.0 mi NW 5.8 mph - N/A   Mostly Cloudy
8:55 PM 17.6 °F 10.7 °F 12.2 °F 79% 29.92 in 10.0 mi NW 4.6 mph - N/A   Mostly Cloudy
9:15 PM 17.6 °F 9.3 °F 12.2 °F 79% 29.92 in 10.0 mi WNW 5.8 mph - N/A   Overcast
9:35 PM 17.6 °F 10.7 °F 12.2 °F 79% 29.93 in 10.0 mi NW 4.6 mph - N/A   Overcast
9:55 PM 17.6 °F 8.2 °F 10.4 °F 73% 29.93 in 10.0 mi NW 6.9 mph - N/A   Overcast
10:15 PM 17.6 °F 6.4 °F 10.4 °F 73% 29.93 in 10.0 mi NNW 9.2 mph - N/A   Overcast
10:35 PM 17.6 °F 6.4 °F 8.6 °F 68% 29.93 in 10.0 mi NNW 9.2 mph - N/A   Mostly Cloudy
10:55 PM 15.8 °F 6.1 °F 8.6 °F 73% 29.94 in 10.0 mi NNW 6.9 mph - N/A   Scattered Clouds
11:15 PM 15.8 °F 8.6 °F 8.6 °F 73% 29.94 in 10.0 mi NNW 4.6 mph - N/A   Mostly Cloudy
11:35 PM 15.8 °F 8.6 °F 8.6 °F 73% 29.95 in 10.0 mi NW 4.6 mph - N/A   Overcast
11:55 PM 14.0 °F 8.2 °F 8.6 °F 79% 29.95 in 10.0 mi NW 3.5 mph - N/A   Mostly Cloudy